Regional Weather Roundup
Issued by NWS

Home | Current Version | Previous Version | Text Only | Print | Product List | Glossary Off
Versions: 1 2 3 4 5 6 7 8 9 10 11 12 13 14 15 16 17 18 19 20 21 22 23 24 25 26 27 28 29 30 31 32 33 34 35 36 37 38 39 40 41 42 43 44 45 46 47 48 49 50

431
ASUS43 KFSD 121902
RWRSD

WEATHER ROUNDUP FOR SOUTH DAKOTA
NATIONAL WEATHER SERVICE SIOUX FALLS SD
100 PM CST FRI FEB 12 2016

NOTE: "FAIR" INDICATES FEW OR NO CLOUDS BELOW 12,000 FEET WITH NO
SIGNIFICANT WEATHER AND/OR OBSTRUCTIONS TO VISIBILITY.


SDZ001>005-009-010-012>017-122000-
NORTHWEST AND NORTH CENTRAL SOUTH DAKOTA

CITY           SKY/WX    TMP DP  RH WIND       PRES   REMARKS
BUFFALO          N/A     24  18  77 E10       30.33F WCI  14
FAITH            N/A     20  12  71 E10       30.46F WCI   9
MOBRIDGE       SUNNY     16   7  67 N8        30.54S WCI   5
$$

SDZ012>016-024>037-041>051-057-063-072>074-122000-
SOUTHWEST AND SOUTH CENTRAL SOUTH DAKOTA

CITY           SKY/WX    TMP DP  RH WIND       PRES   REMARKS
RAPID CTY ARPT FOG       27  26  96 SE8       30.40F VSB 1/4 WCI  19
PIERRE         CLOUDY    22  12  65 NE9       30.53F WCI  12
CUSTER         CLOUDY    28  24  85 VRB7G25   30.28F WCI  21
ELLSWORTH AFB  CLOUDY    28  27  99 SE8       30.38F FOG     WCI  19
PHILIP         CLOUDY    25  15  66 NE8       30.49F WCI  16
PINE RIDGE     CLOUDY    32  26  78 E5        30.39S WCI  27
WINNER         CLOUDY    23  12  62 N6        30.52R WCI  16
$$

SDZ004>011-016>023-039-040-122000-
NORTHEAST SOUTH DAKOTA

CITY           SKY/WX    TMP DP  RH WIND       PRES   REMARKS
ABERDEEN       SUNNY      8  -3  61 N15       30.62F WCI  -9
WATERTOWN      SUNNY      4  -6  63 N16       30.53S WCI -15
BROOKINGS      SUNNY      7  -3  64 N17G24    30.52S WCI -12
SISSETON         N/A      3  -6  66 N17       30.61S WCI -17
$$

SDZ017-020-022-023-036>040-048>070-122000-
SOUTHEAST SOUTH DAKOTA

CITY           SKY/WX    TMP DP  RH WIND       PRES   REMARKS
SIOUX FALLS    MOSUNNY   11   0  61 N20       30.54R WCI  -7
HURON          SUNNY     12   1  61 N16       30.60S WCI  -5
MITCHELL       MOSUNNY   15   6  67 N16       30.59F WCI  -1
YANKTON        MOSUNNY   16   5  62 N15       30.57F WCI   1
$$

ABBREVIATIONS USED IN REMARKS
   TC - TEMPERATURE IN CELSIUS
  WCI - WIND CHILL INDEX
   HX - HEAT INDEX
  VSB - VISIBILITY





USA.gov is the U.S. government's official web portal to all federal, state and local government web resources and services.